Kingman, AZ

2:54 AM MST on February 20, 2018 (GMT -0700)
Kingman

Weather History for KIGM - July, 2013

Change the Weather History Date:

Friday, July 26, 2013

  Actual Average Record
Temperature  
Mean Temperature 85 °F 84 °F  
Max Temperature 94 °F 97 °F 108 °F (1934)
Min Temperature 75 °F 71 °F 55 °F (1918)
Degree Days  
Heating Degree Days 0 0  
Month to date heating degree days 0 0  
Since 1 June heating degree days 0 3  
Since 1 July heating degree days 0 0  
Cooling Degree Days 20 19  
Month to date cooling degree days 545 480  
Year to date cooling degree days 1267 1063  
Since 1 June cooling degree days 1045 865  
Growing Degree Days 35 (Base 50)    
Moisture  
Dew Point 58 °F    
Average Humidity 40    
Maximum Humidity 50    
Minimum Humidity 30    
Precipitation  
Precipitation T in 0.03 in 0.67 in (1908)
Month to date precipitation 0.23 0.61  
Year to date precipitation 1.42 4.16  
Sea Level Pressure  
Sea Level Pressure 29.92 in    
Wind  
Wind Speed 12 mph (South)    
Max Wind Speed 24 mph    
Max Gust Speed 33 mph    
Visibility 10 miles    
Events Rain , Thunderstorm    
T = Trace of Precipitation, MM = Missing Value Source: NWS Daily Summary

Daily Weather History Graph

Daily Weather History Graph

Search for Another Location

Airport or City:

Trip Planner

Search our weather history database for the weather conditions in past years. The results will help you decide how hot, cold, wet, or windy it might be!

Date:

Astronomy

Jul. 26, 2013 Rise Set
Actual Time 5:40 AM MST 7:43 PM MST
Civil Twilight 5:12 AM MST 8:12 PM MST
Nautical Twilight 4:37 AM MST 8:46 PM MST
Astronomical Twilight 4:00 AM MST 9:23 PM MST
Moon 10:13 PM MST (7/26) 10:08 AM MST (7/26)
Length of Visible Light 14h 59m
Length of Day
14h 03m
Waning Gibbous, 79% of the Moon is Illuminated
Jul 26
Waning Gibbous
Jul 29
Last Quarter
Aug 6
New
Aug 14
First Quarter
Aug 20
Full

Hourly Weather History & Observations

Time (MST) Temp. Heat Index Dew Point Humidity Pressure Visibility Wind Dir Wind Speed Gust Speed Precip Events Conditions
12:51 AM 78.1 °F - 55.9 °F 46% 29.88 in 10.0 mi ESE 11.5 mph - N/A   Clear
1:51 AM 77.0 °F - 57.0 °F 50% 29.87 in 10.0 mi ESE 8.1 mph - N/A   Clear
2:51 AM 75.9 °F - 55.9 °F 50% 29.87 in 10.0 mi SSE 4.6 mph - N/A   Clear
3:51 AM 77.0 °F - 55.9 °F 48% 29.89 in 10.0 mi ESE 6.9 mph - N/A   Clear
4:51 AM 78.1 °F - 55.9 °F 46% 29.90 in 10.0 mi SE 6.9 mph - N/A   Clear
5:51 AM 77.0 °F - 55.9 °F 48% 29.93 in 10.0 mi SE 9.2 mph - N/A   Clear
6:51 AM 81.0 °F 80.8 °F 55.9 °F 42% 29.91 in 10.0 mi SE 4.6 mph - N/A   Clear
7:51 AM 86.0 °F 84.7 °F 55.9 °F 36% 29.93 in 10.0 mi SE 13.8 mph 20.7 mph N/A   Clear
8:51 AM 90.0 °F 88.6 °F 57.0 °F 33% 29.92 in 10.0 mi SW 12.7 mph - N/A   Clear
9:51 AM 91.0 °F 89.7 °F 57.0 °F 32% 29.93 in 10.0 mi SW 18.4 mph - N/A   Clear
10:51 AM 91.9 °F 90.3 °F 55.9 °F 30% 29.95 in 10.0 mi SSW 18.4 mph 25.3 mph N/A   Clear
11:51 AM 93.9 °F 92.9 °F 57.9 °F 30% 29.94 in 10.0 mi SW 18.4 mph 24.2 mph N/A   Partly Cloudy
12:35 PM 89.6 °F 88.9 °F 59.0 °F 36% 30.17 in 10.0 mi SW 19.6 mph 28.8 mph N/A Thunderstorm Mostly Cloudy
12:51 PM 86.0 °F 86.3 °F 62.1 °F 44% 29.96 in 10.0 mi South 23.0 mph 27.6 mph N/A Thunderstorm Mostly Cloudy
12:56 PM 84.2 °F 85.0 °F 62.6 °F 48% 30.17 in 10.0 mi SSW 18.4 mph - 0.00 in Rain Light Rain
1:51 PM 90.0 °F 89.1 °F 59.0 °F 35% 29.94 in 10.0 mi WSW 17.3 mph - 0.00 in   Partly Cloudy
2:51 PM 89.1 °F 88.2 °F 59.0 °F 36% 29.93 in 10.0 mi WSW 17.3 mph - N/A   Clear
3:51 PM 90.0 °F 89.1 °F 59.0 °F 35% 29.89 in 10.0 mi SW 19.6 mph 25.3 mph N/A   Clear
4:51 PM 88.0 °F 87.1 °F 59.0 °F 37% 29.89 in 10.0 mi SSW 12.7 mph - N/A   Clear
5:51 PM 89.1 °F 88.2 °F 59.0 °F 36% 29.88 in 10.0 mi SSW 16.1 mph - N/A   Clear
6:51 PM 87.1 °F 86.5 °F 59.0 °F 39% 29.87 in 10.0 mi SSW 12.7 mph - N/A   Clear
7:51 PM 84.0 °F 83.8 °F 59.0 °F 43% 29.88 in 10.0 mi SSW 11.5 mph - N/A   Clear
8:51 PM 84.0 °F 83.5 °F 57.9 °F 41% 29.89 in 10.0 mi SSW 8.1 mph - N/A   Clear
9:51 PM 82.9 °F 82.1 °F 55.9 °F 39% 29.90 in 10.0 mi Calm Calm - N/A   Clear
10:51 PM 81.0 °F 81.0 °F 57.0 °F 44% 29.90 in 10.0 mi ESE 8.1 mph - N/A   Clear
11:51 PM 82.0 °F 82.0 °F 57.9 °F 44% 29.90 in 10.0 mi East 8.1 mph - N/A   Overcast